KN4RPA Fredericksburg VA US current weather conditions

sailwx.info

Wind from 028

Air temperature 6.7° C
Dewpoint -3.8° C

Last reported at 2020-Jan-28 23:00 UTC.
Time now 2020-Jan-28 23:37 UTC

Location: N 38°18' W 077°30'.
View on Google Maps.

See reports from other nearby stations

  
Tides and Currents Weather Stations Pressure Air Temp Water Temp Dewpoint Dewpoint Depression Visibility Wind Speed Wind Dir Waves Ship Positions
date/time (UTC)wind fromknots sea level pressurealtimeterstation pressurevisibilityair tempwater tempwave heightnotes
2020-Jan-28 23:00 028 6.7
2020-Jan-28 22:45 027 6.7
2020-Jan-28 22:30 022 0 gusting 8 7.2
2020-Jan-28 22:15 044 0 gusting 6 7.2
2020-Jan-28 22:00 042 7.2
2020-Jan-28 21:45 011 0 gusting 4 7.2
2020-Jan-28 21:30 058 0 gusting 7 7.2
2020-Jan-28 21:15 039 0 gusting 5 7.8
2020-Jan-28 21:00 350 7.8
2020-Jan-28 20:45 033 7.8
2020-Jan-28 20:30 023 2 gusting 7 7.2
2020-Jan-28 20:15 043 7.2
2020-Jan-28 20:00 032 7.2
2020-Jan-28 19:45 064 7.8
2020-Jan-28 19:18 348 0 gusting 7 7.2
2020-Jan-28 19:02 012 0 gusting 6 7.2
2020-Jan-28 18:49 355 0 gusting 12 7.8
2020-Jan-28 18:33 042 1 gusting 9 7.8
2020-Jan-28 18:17 036 1 gusting 7 7.8
2020-Jan-28 18:02 069 3 gusting 11 7.8
2020-Jan-28 17:47 049 2 gusting 9 7.8
2020-Jan-28 17:33 310 1 gusting 8 8.3
2020-Jan-28 17:17 042 1 gusting 8 7.8
2020-Jan-28 17:02 355 2 gusting 6 7.2
2020-Jan-28 16:46 055 1 gusting 7 7.2
2020-Jan-28 16:31 013 4 gusting 9 6.7
2020-Jan-28 16:17 040 7.2
2020-Jan-28 16:03 051 4 gusting 10 7.2
2020-Jan-28 15:46 342 0 gusting 10 7.2
2020-Jan-28 15:33 005 1 gusting 6 6.7
2020-Jan-28 15:16 350 1 gusting 5 6.7
2020-Jan-28 15:02 024 6.1
2020-Jan-28 14:47 030 0 gusting 4 5.6
2020-Jan-28 14:31 021 0 gusting 6 5.0
2020-Jan-28 14:16 061 4.4
2020-Jan-28 14:01 061 4.4
2020-Jan-28 13:46 061 3.9
2020-Jan-28 13:31 061 3.9
2020-Jan-28 13:15 061 3.9
2020-Jan-28 13:01 063 3.9
2020-Jan-28 12:45 067 3.9
2020-Jan-28 12:30 034 3.9
2020-Jan-28 12:15 034 3.9
2020-Jan-28 12:00 039 3.9
2020-Jan-28 11:45 040 3.9
2020-Jan-28 11:30 044 3.9
2020-Jan-28 11:15 026 3.9
2020-Jan-28 11:00 031 3.9
2020-Jan-28 10:45 059 4.4
2020-Jan-28 10:30 028 4.4
2020-Jan-28 10:18 024 4.4
2020-Jan-28 10:02 055 4.4
2020-Jan-28 09:48 068 0 gusting 5 4.4
2020-Jan-28 09:33 030 4.4
2020-Jan-28 09:17 005 4.4
2020-Jan-28 09:03 022 0 gusting 2 4.4
2020-Jan-28 08:46 017 0 gusting 5 4.4
2020-Jan-28 08:32 053 4.4
2020-Jan-28 08:17 055 0 gusting 4 4.4
2020-Jan-28 08:02 034 4.4
2020-Jan-28 07:46 040 4.4
2020-Jan-28 07:31 043 4.4
2020-Jan-28 07:17 036 0 gusting 4 4.4
2020-Jan-28 07:01 030 5.0
2020-Jan-28 06:47 047 5.0
2020-Jan-28 06:33 030 5.0
2020-Jan-28 06:15 022 5.0
2020-Jan-28 06:02 058 5.0
2020-Jan-28 05:46 051 1 gusting 5 5.0
2020-Jan-28 05:31 032 1 gusting 6 5.0
2020-Jan-28 05:16 030 5.6
2020-Jan-28 05:01 046 5.6
2020-Jan-28 04:46 048 0 gusting 2 5.6
2020-Jan-28 04:31 045 5.6
2020-Jan-28 04:15 048 5.6
2020-Jan-28 04:01 046 0 gusting 3 5.6
2020-Jan-28 03:45 050 5.6
2020-Jan-28 03:31 049 0 gusting 9 5.6
2020-Jan-28 03:15 046 1 gusting 12 5.6
2020-Jan-28 03:00 065 0 gusting 7 6.1
2020-Jan-28 02:46 028 1 gusting 5 6.1
2020-Jan-28 02:30 040 6.1
2020-Jan-28 02:16 063 6.1
2020-Jan-28 02:00 038 0 gusting 5 6.1
2020-Jan-28 01:45 043 6.1
2020-Jan-28 01:30 049 6.7
2020-Jan-28 01:16 062 0 gusting 7 6.7
2020-Jan-28 01:00 042 2 gusting 7 6.7
2020-Jan-28 00:45 044 0 gusting 5 6.7
2020-Jan-28 00:30 027 7.2
2020-Jan-28 00:15 071 0 gusting 3 7.2
2020-Jan-28 00:00 030 7.2
2020-Jan-27 23:45 360 0 gusting 7 7.8
2020-Jan-27 23:30 059 7.8
2020-Jan-27 23:15 061 8.3
2020-Jan-27 23:00 022 0 gusting 4 8.3
2020-Jan-27 22:45 065 1 gusting 6 8.3
2020-Jan-27 22:31 049 0 gusting 6 8.9
2020-Jan-27 22:16 032 0 gusting 4 9.4
2020-Jan-27 22:00 149 9.4
2020-Jan-27 21:45 149 9.4
2020-Jan-27 21:30 149 9.4
2020-Jan-27 21:15 162 10.0
2020-Jan-27 21:00 162 0 gusting 4 10.0
2020-Jan-27 20:45 161 0 gusting 5 10.0
2020-Jan-27 20:30 063 10.0
2020-Jan-27 20:15 163 2 gusting 5 10.0
2020-Jan-27 20:00 187 0 gusting 7 10.0
2020-Jan-27 19:45 215 0 gusting 5 9.4
2020-Jan-27 19:30 162 2 gusting 7 10.6
2020-Jan-27 19:15 186 10.0
2020-Jan-27 19:00 186 1 gusting 6 10.0
2020-Jan-27 18:48 188 1 gusting 8 10.0
2020-Jan-27 18:31 166 10.6
2020-Jan-27 18:17 191 2 gusting 8 9.4
2020-Jan-27 18:03 290 1 gusting 7 10.6
2020-Jan-27 17:48 133 0 gusting 6 10.0
2020-Jan-27 17:31 180 9.4
2020-Jan-27 17:17 180 9.4
2020-Jan-27 17:04 192 0 gusting 6 9.4
2020-Jan-27 16:46 159 1 gusting 12 8.3
2020-Jan-27 16:31 180 0 gusting 6 8.3
2020-Jan-27 16:16 164 1 gusting 6 7.2
2020-Jan-27 16:01 173 1 gusting 6 7.2
2020-Jan-27 15:46 171 0 gusting 5 6.7
2020-Jan-27 15:30 096 6.7
2020-Jan-27 15:16 083 6.1
2020-Jan-27 15:01 082 5.6
2020-Jan-27 14:45 082 5.0
2020-Jan-27 14:31 082 4.4
2020-Jan-27 14:16 079 3.9
2020-Jan-27 14:01 079 2.2
2020-Jan-27 13:45 079 1.7
2020-Jan-27 13:30 079 1.1
2020-Jan-27 13:15 079 1.1
2020-Jan-27 13:00 079 0.6
2020-Jan-27 12:45 079 0.6
2020-Jan-27 12:30 079 0.6
2020-Jan-27 12:16 079 0.6
2020-Jan-27 12:00 079 -0.0
2020-Jan-27 11:45 079 -0.0
2020-Jan-27 11:30 079 0.6
2020-Jan-27 11:15 079 0.6
2020-Jan-27 11:00 079 0.6
2020-Jan-27 10:45 079 0.6
2020-Jan-27 10:30 079 0.6
2020-Jan-27 10:17 079 0.6
2020-Jan-27 10:02 079 0.6
2020-Jan-27 09:48 079 0.6
2020-Jan-27 09:32 079 1.1
2020-Jan-27 09:19 079 1.1
2020-Jan-27 09:02 079 1.1
2020-Jan-27 08:47 079 1.7
2020-Jan-27 08:31 079 1.7
2020-Jan-27 08:17 079 1.7
2020-Jan-27 08:01 079 2.2
2020-Jan-27 07:47 079 2.2
2020-Jan-27 07:33 079 2.2
2020-Jan-27 07:17 079 2.2
2020-Jan-27 07:03 079 1.7
2020-Jan-27 06:47 079 1.7
2020-Jan-27 06:31 079 1.7
2020-Jan-27 06:17 079 1.1
2020-Jan-27 06:01 079 1.1
2020-Jan-27 05:46 079 1.7
2020-Jan-27 05:32 079 1.7
2020-Jan-27 05:16 079 1.7
2020-Jan-27 05:01 079 2.2
2020-Jan-27 04:46 079 2.8
2020-Jan-27 04:31 079 2.8
2020-Jan-27 04:16 079 3.3
2020-Jan-27 04:01 079 3.9
2020-Jan-27 03:45 079 4.4
2020-Jan-27 03:30 079 5.0
2020-Jan-27 03:16 079 5.6
2020-Jan-27 03:00 079 5.6
2020-Jan-27 02:46 079 6.1
2020-Jan-27 02:31 078 6.1
2020-Jan-27 02:16 078 6.1
2020-Jan-27 02:01 079 6.1
2020-Jan-27 01:46 078 6.7
2020-Jan-27 01:30 078 6.7
2020-Jan-27 01:16 087 6.7
2020-Jan-27 01:00 088 6.7
2020-Jan-27 00:45 119 7.2
2020-Jan-27 00:30 057 7.2
2020-Jan-27 00:15 057 7.2
2020-Jan-27 00:01 057 7.8
2020-Jan-26 23:45 057 7.8
2020-Jan-26 23:31 057 7.8
2020-Jan-26 23:15 057 7.8
2020-Jan-26 23:00 057 7.8